Tracking 30923 objects as of 1-Jul-2025
HD Live streaming from Space Station
objects crossing your sky now

STARLINK-11237

Track STARLINK-11237 now!
10-day predictions
STARLINK-11237 is classified as:


NORAD ID: 60934
Int'l Code: 2024-155L
Perigee: 366.0 km
Apogee: 367.8 km
Inclination: 53.2 °
Period: 91.7 minutes
Semi major axis: 6737 km
RCS: Unknown
Launch date: August 31, 2024
Source: United States (US)
Launch site: AIR FORCE WESTERN TEST RANGE (AFWTR)
Your satellite tracking list
METEOR 3M
Track 1 satellite(s)




NASA's NSSDC Master Catalog

Two Line Element Set (TLE):
1 60934U 24155L   25181.60310670  .00000583  00000-0  96718-5 0  9991
2 60934  53.1586 143.6313 0001323  88.3201 271.7969 15.69706369 48829
Source of the keplerian elements: AFSPC